�N����,����,�~����,�C��,���x,�C��,����,���ϕ���,�ő�u�ԕ���,�ő厞����,���˗�,�I�_���x,�n�����x,�ő啗���N��,DTYPE
"21/02/27","00:10",0.0,5.0,84.5,1017.8,352.5,2.7,5.1,336.0,0.00,2.6,130.0,"00:01:28",1
"21/02/27","00:20",0.0,5.6,80.8,1018.0,314.8,2.5,3.9,330.0,0.00,2.6,130.0,"00:17:44",1
"21/02/27","00:30",0.0,5.7,76.9,1018.0,328.5,2.0,3.7,322.9,0.00,2.0,130.0,"00:20:40",1
"21/02/27","00:40",0.0,6.0,72.4,1018.5,316.6,2.3,4.9,320.4,0.00,1.5,130.0,"00:33:44",1
"21/02/27","00:50",0.0,6.1,69.8,1018.5,321.9,3.7,8.6,332.5,0.00,1.0,130.0,"00:43:20",1
"21/02/27","01:00",0.0,6.2,68.4,1018.2,344.0,2.8,5.2,330.1,0.00,0.9,130.0,"00:54:32",1
"21/02/27","01:10",0.0,6.1,67.8,1018.2,331.4,3.0,8.1,331.1,0.00,0.6,130.0,"01:00:24",1
"21/02/27","01:20",0.0,6.0,67.3,1018.0,308.8,2.1,4.2,322.8,0.00,0.4,130.0,"01:14:00",1
"21/02/27","01:30",0.0,5.8,67.2,1018.5,321.1,2.6,4.9,316.5,0.00,0.2,130.0,"01:26:48",1
"21/02/27","01:40",0.0,5.9,65.9,1018.5,338.7,2.6,5.9,321.1,0.00,0.1,130.0,"01:31:12",1
"21/02/27","01:50",0.0,5.8,65.0,1018.5,337.6,2.3,4.4,342.5,0.00,-0.2,130.0,"01:41:28",1
"21/02/27","02:00",0.0,5.6,65.4,1018.7,318.9,2.5,5.4,294.9,0.00,-0.3,130.0,"01:59:28",1
"21/02/27","02:10",0.0,5.6,64.9,1018.5,317.3,3.0,7.2,301.6,0.00,-0.4,130.0,"02:01:28",1
"21/02/27","02:20",0.0,5.6,64.4,1018.5,342.4,2.2,4.5,301.9,0.00,-0.5,130.0,"02:16:40",1
"21/02/27","02:30",0.0,5.7,64.1,1018.2,332.5,3.0,6.6,302.2,0.00,-0.5,130.0,"02:21:28",1
"21/02/27","02:40",0.0,5.5,64.0,1018.5,332.7,3.2,7.8,330.8,0.00,-0.7,130.0,"02:38:24",1
"21/02/27","02:50",0.0,5.4,63.8,1018.2,338.7,3.2,6.8,319.5,0.00,-0.9,130.0,"02:49:04",1
"21/02/27","03:00",0.0,5.5,63.0,1018.5,327.1,3.4,8.1,321.7,0.00,-0.9,130.0,"02:55:28",1
"21/02/27","03:10",0.0,5.3,63.0,1018.7,321.9,2.2,4.7,344.1,0.00,-1.1,130.0,"03:03:20",1
"21/02/27","03:20",0.0,5.2,63.5,1018.7,327.2,3.0,6.7,334.8,0.00,-1.1,130.0,"03:18:32",1
"21/02/27","03:30",0.0,5.2,63.1,1019.0,324.5,2.3,5.6,318.6,0.00,-1.2,130.0,"03:23:28",1
"21/02/27","03:40",0.0,5.1,63.5,1018.7,325.4,3.7,7.7,308.8,0.00,-1.2,130.0,"03:36:24",1
"21/02/27","03:50",0.0,5.0,63.6,1018.7,338.4,2.5,5.2,347.1,0.00,-1.3,130.0,"03:46:16",1
"21/02/27","04:00",0.0,5.1,63.6,1018.7,333.6,3.0,7.0,336.3,0.00,-1.2,130.0,"03:56:08",1
"21/02/27","04:10",0.0,5.1,63.7,1019.0,339.0,3.4,9.3,330.3,0.00,-1.2,130.0,"04:06:32",1
"21/02/27","04:20",0.0,4.9,64.0,1019.2,333.6,3.0,5.8,333.1,0.00,-1.3,130.0,"04:10:16",1
"21/02/27","04:30",0.0,4.9,64.0,1019.2,321.1,3.9,9.3,328.9,0.00,-1.3,130.0,"04:26:42",1
"21/02/27","04:40",0.0,4.9,62.9,1019.7,342.9,2.3,4.5,339.2,0.00,-1.5,130.0,"04:33:28",1
"21/02/27","04:50",0.0,4.7,63.7,1019.4,324.8,2.8,6.3,332.4,0.00,-1.5,130.0,"04:44:48",1
"21/02/27","05:00",0.0,4.6,64.2,1020.1,335.1,2.1,5.1,329.9,0.00,-1.5,130.0,"04:59:52",1
"21/02/27","05:10",0.0,4.8,62.9,1020.4,347.3,3.1,8.2,323.8,0.00,-1.6,130.0,"05:04:40",1
"21/02/27","05:20",0.0,4.5,63.4,1020.6,327.9,2.0,4.8,337.7,0.00,-1.8,130.0,"05:13:52",1
"21/02/27","05:30",0.0,4.5,63.6,1020.4,339.6,2.8,6.6,336.4,0.00,-1.8,130.0,"05:23:28",1
"21/02/27","05:40",0.0,4.6,62.9,1020.6,324.5,3.9,7.4,321.1,0.00,-1.8,130.0,"05:37:52",1
"21/02/27","05:50",0.0,4.5,61.9,1020.8,343.7,2.6,4.8,316.5,0.00,-2.1,130.0,"05:47:28",1
"21/02/27","06:00",0.0,4.4,61.5,1020.8,337.6,2.8,5.8,341.0,0.00,-2.3,130.0,"05:59:36",1
"21/02/27","06:10",0.0,4.3,61.3,1020.8,338.0,2.7,5.1,350.7,0.00,-2.4,130.0,"06:08:32",1
"21/02/27","06:20",0.0,4.3,61.3,1020.8,334.9,2.5,5.0,356.3,0.00,-2.4,130.0,"06:18:48",1
"21/02/27","06:30",0.0,4.3,61.7,1021.1,341.6,3.0,5.8,345.0,0.00,-2.4,130.0,"06:27:04",1
"21/02/27","06:40",0.0,4.4,61.4,1020.8,354.4,3.4,8.8,332.9,0.00,-2.3,130.0,"06:39:36",1
"21/02/27","06:50",0.0,4.3,61.0,1020.6,343.4,3.2,11.0,322.2,0.00,-2.5,130.0,"06:43:42",1
"21/02/27","07:00",0.0,4.4,60.8,1021.3,343.0,3.0,7.5,308.9,0.00,-2.5,130.0,"06:51:12",1
"21/02/27","07:10",0.0,4.4,60.8,1021.5,344.6,2.8,7.1,346.5,0.00,-2.5,130.0,"07:02:16",1
"21/02/27","07:20",0.0,4.5,59.4,1021.3,351.0,3.5,7.8,340.0,0.01,-2.7,130.0,"07:15:28",1
"21/02/27","07:30",0.0,4.6,59.1,1022.0,336.5,3.2,7.5,343.5,0.02,-2.7,130.0,"07:27:52",1
"21/02/27","07:40",0.0,4.6,59.3,1021.8,342.3,2.5,4.4,311.8,0.02,-2.6,130.0,"07:39:44",1
"21/02/27","07:50",0.0,4.6,59.9,1021.8,320.6,2.0,4.8,322.4,0.03,-2.5,130.0,"07:48:40",1
"21/02/27","08:00",0.0,4.8,59.1,1022.5,336.4,2.7,6.4,335.6,0.04,-2.5,130.0,"07:53:14",1
"21/02/27","08:10",0.0,4.9,58.4,1022.5,350.8,3.2,7.3,325.1,0.05,-2.5,130.0,"08:03:14",1
"21/02/27","08:20",0.0,5.1,58.7,1022.5,332.9,4.4,11.1,312.7,0.08,-2.3,130.0,"08:18:10",1
"21/02/27","08:30",0.0,5.5,58.8,1022.5,341.5,4.4,9.4,342.2,0.13,-1.9,130.0,"08:21:40",1
"21/02/27","08:40",0.0,6.0,58.1,1023.2,336.2,3.2,7.5,334.8,0.16,-1.6,130.0,"08:32:28",1
"21/02/27","08:50",0.0,5.9,57.0,1023.2,344.7,3.5,7.1,331.8,0.17,-1.9,130.0,"08:43:44",1
"21/02/27","09:00",0.0,5.6,56.9,1023.2,8.5,3.6,6.8,38.7,0.15,-2.2,130.0,"08:51:04",1
"21/02/27","09:10",0.0,6.0,58.2,1023.4,339.3,4.4,8.0,318.8,0.24,-1.5,130.0,"09:07:32",1
"21/02/27","09:20",0.0,6.4,56.5,1023.4,1.6,3.2,7.4,342.1,0.32,-1.6,130.0,"09:15:28",1
"21/02/27","09:30",0.0,6.3,55.5,1023.7,356.4,3.4,10.1,349.0,0.33,-1.9,130.0,"09:28:48",1
"21/02/27","09:40",0.0,6.5,55.0,1023.9,6.8,3.2,7.1,325.3,0.33,-1.8,130.0,"09:31:28",1
"21/02/27","09:50",0.0,6.2,53.5,1023.4,2.0,3.4,7.2,338.2,0.33,-2.5,130.0,"09:45:48",1
"21/02/27","10:00",0.0,6.3,53.4,1023.7,352.9,3.7,7.5,351.0,0.35,-2.4,130.0,"09:57:36",1
"21/02/27","10:10",0.0,6.3,52.7,1023.7,356.7,4.1,8.7,335.8,0.38,-2.6,130.0,"10:00:40",1
"21/02/27","10:20",0.0,6.2,52.4,1023.4,354.8,4.2,8.0,335.2,0.36,-2.8,130.0,"10:15:04",1
"21/02/27","10:30",0.0,6.5,51.5,1023.7,359.0,3.5,6.6,359.8,0.37,-2.7,130.0,"10:20:08",1
"21/02/27","10:40",0.0,6.8,50.0,1023.9,4.6,2.8,5.7,7.9,0.40,-2.9,130.0,"10:36:08",1
"21/02/27","10:50",0.0,7.0,47.7,1023.7,7.9,3.1,7.1,16.9,0.45,-3.3,130.0,"10:47:56",1
"21/02/27","11:00",0.0,7.2,47.5,1023.9,1.3,3.6,7.7,354.5,0.46,-3.2,130.0,"10:59:32",1
"21/02/27","11:10",0.0,7.5,47.7,1024.1,359.5,3.1,5.5,341.8,0.48,-2.8,130.0,"11:08:14",1
"21/02/27","11:20",0.0,7.6,46.9,1023.7,2.3,3.7,7.7,28.1,0.51,-3.0,130.0,"11:16:10",1
"21/02/27","11:30",0.0,7.9,46.3,1023.7,357.9,3.1,5.6,346.9,0.52,-2.9,130.0,"11:22:36",1
"21/02/27","11:40",0.0,8.2,47.3,1023.7,344.9,3.5,9.6,342.8,0.52,-2.3,130.0,"11:35:10",1
"21/02/27","11:50",0.0,8.3,48.4,1023.7,331.1,4.7,8.5,319.0,0.52,-1.9,130.0,"11:40:08",1
"21/02/27","12:00",0.0,8.4,49.6,1023.7,337.2,4.4,8.2,333.4,0.52,-1.5,130.0,"11:51:12",1
"21/02/27","12:10",0.0,8.8,48.5,1023.7,335.1,3.1,7.3,336.6,0.52,-1.4,130.0,"12:07:12",1
"21/02/27","12:20",0.0,8.4,50.1,1023.9,340.3,4.2,7.9,333.9,0.53,-1.3,130.0,"12:14:22",1
"21/02/27","12:30",0.0,8.3,50.7,1023.7,326.8,4.6,10.0,333.2,0.54,-1.3,130.0,"12:24:08",1
"21/02/27","12:40",0.0,8.3,49.1,1023.7,338.3,5.2,9.0,307.2,0.54,-1.7,130.0,"12:37:18",1
"21/02/27","12:50",0.0,8.3,50.9,1023.4,330.9,5.1,9.4,329.7,0.53,-1.2,130.0,"12:42:26",1
"21/02/27","13:00",0.0,8.5,50.1,1023.2,332.9,4.2,10.4,329.0,0.56,-1.3,130.0,"12:58:56",1
"21/02/27","13:10",0.0,8.8,50.2,1023.4,335.7,4.4,7.9,333.1,0.55,-0.9,130.0,"13:07:28",1
"21/02/27","13:20",0.0,8.7,51.4,1023.4,330.9,5.2,9.1,341.8,0.55,-0.7,130.0,"13:12:24",1
"21/02/27","13:30",0.0,8.4,51.3,1023.2,333.2,5.6,10.3,346.0,0.54,-1.0,130.0,"13:29:12",1
"21/02/27","13:40",0.0,8.4,51.4,1022.7,338.8,5.1,9.6,336.4,0.53,-1.0,130.0,"13:38:20",1
"21/02/27","13:50",0.0,8.9,52.7,1022.7,327.1,5.0,8.0,321.6,0.51,-0.2,130.0,"13:40:56",1
"21/02/27","14:00",0.0,8.2,52.0,1022.7,335.5,5.5,10.5,319.6,0.49,-1.0,130.0,"13:53:32",1
"21/02/27","14:10",0.0,8.3,51.9,1022.5,328.9,5.0,9.6,339.8,0.48,-1.0,130.0,"14:07:14",1
"21/02/27","14:20",0.0,8.9,51.3,1023.0,334.2,4.2,11.0,350.5,0.46,-0.6,130.0,"14:12:26",1
"21/02/27","14:30",0.0,8.0,51.2,1023.0,337.8,6.1,11.3,323.6,0.44,-1.4,130.0,"14:29:16",1
"21/02/27","14:40",0.0,8.2,51.9,1023.0,331.1,6.4,11.2,335.2,0.42,-1.1,130.0,"14:34:30",1
"21/02/27","14:50",0.0,7.9,49.8,1023.2,332.4,6.9,11.7,342.3,0.40,-1.9,130.0,"14:46:54",1
"21/02/27","15:00",0.0,8.2,51.1,1022.5,335.2,6.5,11.0,332.5,0.37,-1.3,130.0,"14:53:06",1
"21/02/27","15:10",0.0,8.1,50.5,1022.7,338.9,6.0,10.3,338.9,0.35,-1.5,130.0,"15:04:40",1
"21/02/27","15:20",0.0,8.4,50.6,1022.7,340.8,5.6,9.6,334.6,0.33,-1.2,130.0,"15:10:32",1
"21/02/27","15:30",0.0,8.4,50.1,1022.7,338.4,5.1,8.0,353.6,0.28,-1.3,130.0,"15:27:24",1
"21/02/27","15:40",0.0,8.1,49.4,1023.0,340.5,5.2,10.0,350.9,0.26,-1.8,130.0,"15:35:52",1
"21/02/27","15:50",0.0,7.9,49.6,1022.7,343.2,5.2,9.8,343.3,0.24,-1.9,130.0,"15:45:08",1
"21/02/27","16:00",0.0,7.6,51.0,1023.0,342.0,5.6,10.9,324.5,0.18,-1.8,130.0,"15:54:02",1
"21/02/27","16:10",0.0,7.7,52.0,1022.7,345.3,5.0,10.0,334.8,0.18,-1.5,130.0,"16:09:02",1
"21/02/27","16:20",0.0,7.5,51.8,1022.7,344.8,5.5,10.0,339.0,0.16,-1.7,130.0,"16:19:44",1
"21/02/27","16:30",0.0,7.3,52.3,1023.2,341.3,5.4,9.6,334.3,0.14,-1.8,130.0,"16:26:38",1
"21/02/27","16:40",0.0,7.1,53.0,1023.2,339.0,5.0,10.2,336.7,0.10,-1.8,130.0,"16:34:40",1
"21/02/27","16:50",0.0,6.7,53.8,1023.4,336.2,6.1,17.1,337.8,0.09,-2.0,130.0,"16:42:46",1
"21/02/27","17:00",0.0,6.4,54.4,1023.7,341.1,5.1,8.2,337.0,0.06,-2.1,130.0,"16:52:58",1
"21/02/27","17:10",0.0,6.3,54.9,1023.4,338.3,5.5,10.3,338.0,0.05,-2.1,130.0,"17:07:50",1
"21/02/27","17:20",0.0,6.0,55.8,1023.9,333.2,5.5,8.8,341.7,0.03,-2.1,130.0,"17:17:36",1
"21/02/27","17:30",0.0,5.8,57.4,1023.9,332.5,5.2,9.7,339.6,0.01,-1.9,130.0,"17:27:58",1
"21/02/27","17:40",0.0,5.5,58.8,1024.1,331.4,5.2,8.0,336.1,0.00,-1.9,130.0,"17:35:52",1
"21/02/27","17:50",0.0,5.3,60.2,1024.4,330.2,5.2,8.2,323.4,0.00,-1.7,130.0,"17:40:24",1
"21/02/27","18:00",0.0,5.1,61.3,1024.1,334.4,5.1,8.8,336.0,0.00,-1.7,130.0,"17:50:08",1
"21/02/27","18:10",0.0,4.8,62.5,1024.4,330.7,5.4,8.6,328.7,0.00,-1.7,130.0,"18:03:44",1
"21/02/27","18:20",0.0,4.6,63.5,1024.9,336.1,4.9,7.8,333.8,0.00,-1.7,130.0,"18:18:22",1
"21/02/27","18:30",0.0,4.5,64.5,1024.6,329.3,5.1,8.5,327.4,0.00,-1.6,130.0,"18:28:16",1
"21/02/27","18:40",0.0,4.4,65.2,1024.6,332.7,5.0,9.7,340.5,0.00,-1.5,130.0,"18:30:48",1
"21/02/27","18:50",0.0,4.3,65.9,1024.6,330.6,5.0,7.5,335.4,0.00,-1.5,130.0,"18:43:28",1
"21/02/27","19:00",0.0,4.2,66.6,1024.9,332.6,4.7,8.3,328.7,0.00,-1.4,130.0,"18:50:56",1
"21/02/27","19:10",0.0,4.3,66.9,1024.9,332.4,5.1,7.7,327.1,0.00,-1.3,130.0,"19:06:34",1
"21/02/27","19:20",0.0,4.2,67.2,1024.9,328.5,4.6,7.2,341.1,0.00,-1.3,130.0,"19:13:44",1
"21/02/27","19:30",0.0,4.1,67.7,1024.9,327.8,4.2,6.2,318.9,0.00,-1.3,130.0,"19:29:28",1
"21/02/27","19:40",0.0,4.0,67.9,1025.3,322.9,3.7,7.0,320.0,0.00,-1.3,130.0,"19:35:20",1
"21/02/27","19:50",0.0,4.0,67.7,1025.3,302.3,2.1,4.7,317.2,0.00,-1.4,130.0,"19:42:16",1
"21/02/27","20:00",0.0,4.0,67.7,1025.3,300.7,2.8,5.7,315.3,0.00,-1.4,130.0,"19:55:28",1
"21/02/27","20:10",0.0,4.0,67.6,1025.8,310.2,3.1,6.2,333.7,0.00,-1.4,130.0,"20:07:36",1
"21/02/27","20:20",0.0,3.7,68.1,1025.8,302.4,2.3,4.9,302.0,0.00,-1.6,130.0,"20:10:08",1
"21/02/27","20:30",0.0,3.5,68.9,1026.0,306.4,2.6,4.0,306.3,0.00,-1.6,130.0,"20:21:04",1
"21/02/27","20:40",0.0,3.3,69.7,1026.0,284.0,2.0,3.4,322.3,0.00,-1.7,130.0,"20:33:12",1
"21/02/27","20:50",0.0,3.1,70.5,1025.8,281.0,2.0,2.4,272.3,0.00,-1.7,130.0,"20:42:08",1
"21/02/27","21:00",0.0,2.8,71.4,1026.0,284.5,2.0,2.7,298.9,0.00,-1.8,130.0,"20:51:52",1
"21/02/27","21:10",0.0,2.8,72.3,1025.8,311.5,2.8,4.3,324.3,0.00,-1.6,130.0,"21:06:54",1
"21/02/27","21:20",0.0,3.0,72.7,1025.6,320.5,3.7,5.2,321.4,0.00,-1.4,130.0,"21:18:08",1
"21/02/27","21:30",0.0,3.0,72.9,1026.0,327.8,3.4,5.0,329.6,0.00,-1.3,130.0,"21:25:28",1
"21/02/27","21:40",0.0,3.0,73.2,1025.8,329.0,3.7,5.7,328.9,0.00,-1.3,130.0,"21:33:12",1
"21/02/27","21:50",0.0,2.9,73.6,1025.8,324.7,4.4,5.8,324.3,0.00,-1.3,130.0,"21:46:08",1
"21/02/27","22:00",0.0,2.9,73.9,1026.0,318.0,4.4,6.0,334.6,0.00,-1.2,130.0,"21:56:16",1
"21/02/27","22:10",0.0,2.8,74.0,1026.0,325.0,3.5,5.0,331.9,0.00,-1.3,130.0,"22:01:20",1
"21/02/27","22:20",0.0,2.5,74.6,1025.8,328.2,3.6,4.9,329.9,0.00,-1.5,130.0,"22:18:32",1
"21/02/27","22:30",0.0,2.6,74.9,1026.0,320.8,4.1,5.2,323.4,0.00,-1.4,130.0,"22:22:56",1
"21/02/27","22:40",0.0,2.5,75.4,1025.8,332.4,4.9,6.2,327.2,0.00,-1.4,130.0,"22:32:18",1
"21/02/27","22:50",0.0,2.3,75.9,1025.8,333.6,3.7,5.8,337.4,0.00,-1.5,130.0,"22:42:52",1
"21/02/27","23:00",0.0,2.2,76.4,1025.8,333.9,3.2,4.9,345.8,0.00,-1.5,130.0,"22:59:16",1
"21/02/27","23:10",0.0,2.1,77.0,1025.8,329.9,3.4,5.6,323.8,0.00,-1.5,130.0,"23:02:18",1
"21/02/27","23:20",0.0,2.1,77.7,1026.0,325.8,3.7,5.5,312.0,0.00,-1.3,130.0,"23:18:38",1
"21/02/27","23:30",0.0,2.3,77.7,1025.6,325.3,5.0,6.7,324.0,0.00,-1.1,130.0,"23:21:40",1
"21/02/27","23:40",0.0,2.3,77.8,1025.8,327.3,4.6,6.7,324.1,0.00,-1.1,130.0,"23:33:24",1
"21/02/27","23:50",0.0,2.3,77.9,1025.6,329.4,4.7,6.3,317.7,0.00,-1.1,130.0,"23:48:24",1
"21/02/27","24:00",0.0,2.3,77.9,1025.6,325.1,4.9,6.7,315.6,0.00,-1.1,130.0,"23:59:30",1
